Florala, AL

11:28 AM CDT on August 20, 2017 (GMT -0500)
Florala

Weather History for K0J4 - October, 2011

Change the Weather History Date:

Friday, October 28, 2011

  Actual Average (KCEW) Record (KCEW)
Temperature  
Mean Temperature 67 °F -  
Max Temperature 81 °F 77 °F 87 °F (1991)
Min Temperature 53 °F 50 °F 30 °F (2001)
Cooling Degree Days 2    
Growing Degree Days 17 (Base 50)    
Moisture  
Dew Point 54 °F    
Average Humidity 76    
Maximum Humidity 90    
Minimum Humidity 43    
Precipitation  
Precipitation 0.00 in - - ()
Sea Level Pressure  
Sea Level Pressure 29.94 in    
Wind  
Wind Speed 1 mph (NW)    
Max Wind Speed 7 mph    
Max Gust Speed -    
Visibility 6 miles    
Events Fog    
Averages and records for this station are not official NWS values.
T = Trace of Precipitation, MM = Missing Value Source: NWS Daily Summary

Daily Weather History Graph

Daily Weather History Graph

Search for Another Location

Airport or City:

Trip Planner

Search our weather history database for the weather conditions in past years. The results will help you decide how hot, cold, wet, or windy it might be!

Date:

Astronomy

Oct. 28, 2011 Rise Set
Actual Time 6:57 AM CDT 6:00 PM CDT
Civil Twilight 6:32 AM CDT 6:25 PM CDT
Nautical Twilight 6:03 AM CDT 6:53 PM CDT
Astronomical Twilight 5:35 AM CDT 7:21 PM CDT
Moon 9:01 AM CDT (10/28) 7:34 PM CDT (10/28)
Length of Visible Light 11h 52m
Length of Day
11h 03m
Waxing Crescent, 5% of the Moon is Illuminated
Oct 28
Waxing Crescent
Nov 2
First Quarter
Nov 10
Full
Nov 18
Last Quarter
Nov 25
New

Hourly Weather History & Observations

Time (CDT) Temp. Heat Index Dew Point Humidity Pressure Visibility Wind Dir Wind Speed Gust Speed Precip Events Conditions
12:58 AM 59.0 °F - 55.0 °F 87% 29.92 in 10.0 mi Calm Calm - N/A   Clear
1:18 AM 57.0 °F - 53.1 °F 87% 29.93 in 2.0 mi Calm Calm - N/A   Clear
1:27 AM 57.9 °F - 55.0 °F 90% 29.93 in 6.0 mi Calm Calm - N/A   Clear
1:58 AM 57.0 °F - 54.0 °F 89% 29.92 in 5.0 mi Calm Calm - N/A   Clear
2:19 AM 57.0 °F - 53.1 °F 87% 29.93 in 2.0 mi Calm Calm - N/A   Clear
2:30 AM 55.9 °F - 53.1 °F 90% 29.93 in 1.5 mi Calm Calm - N/A   Clear
2:40 AM 57.0 °F - 53.1 °F 87% 29.93 in 5.0 mi Calm Calm - N/A   Clear
2:58 AM 57.0 °F - 53.1 °F 87% 29.92 in 6.0 mi Calm Calm - N/A   Clear
3:16 AM 55.0 °F - 52.0 °F 89% 29.93 in 1.5 mi Calm Calm - N/A   Clear
3:25 AM 55.0 °F - 52.0 °F 89% 29.93 in 0.5 mi Calm Calm - N/A Fog Fog
3:37 AM 55.9 °F - 52.0 °F 87% 29.93 in 1.0 mi Calm Calm - N/A   Clear
3:41 AM 54.0 °F - 51.1 °F 90% 29.93 in 3.0 mi Calm Calm - N/A   Clear
3:53 AM 55.9 °F - 52.0 °F 87% 29.93 in 2.0 mi Calm Calm - N/A   Clear
3:57 AM 57.0 °F - 53.1 °F 87% 29.93 in 1.0 mi Calm Calm - N/A   Clear
4:10 AM 55.0 °F - 51.1 °F 86% 29.94 in 0.8 mi SSW 3.5 mph - N/A   Clear
4:17 AM 55.9 °F - 52.0 °F 87% 29.94 in 2.0 mi Calm Calm - N/A   Clear
4:21 AM 55.0 °F - 52.0 °F 89% 29.94 in 8.0 mi Calm Calm - N/A   Clear
4:47 AM 55.0 °F - 51.1 °F 86% 29.94 in 2.0 mi Calm Calm - N/A   Clear
4:56 AM 57.0 °F - 53.1 °F 87% 29.94 in 5.0 mi Calm Calm - N/A   Clear
4:58 AM 57.0 °F - 53.1 °F 87% 29.93 in 6.0 mi Calm Calm - N/A   Clear
5:58 AM 57.9 °F - 55.0 °F 90% 29.94 in 7.0 mi Calm Calm - N/A   Clear
6:45 AM 53.1 °F - 50.0 °F 89% 29.96 in 1.8 mi Calm Calm - N/A   Clear
6:58 AM 54.0 °F - 50.0 °F 86% 29.95 in 3.0 mi Calm Calm - N/A   Clear
7:58 AM 57.9 °F - 54.0 °F 87% 29.96 in 7.0 mi Calm Calm - N/A   Clear
8:58 AM 66.0 °F - 59.0 °F 78% 29.99 in 10.0 mi Calm Calm - N/A   Clear
9:58 AM 73.0 °F - 57.9 °F 59% 29.98 in 10.0 mi NNE 5.8 mph - N/A   Clear
10:58 AM 78.1 °F - 57.9 °F 50% 29.98 in 10.0 mi Variable 3.5 mph - N/A   Clear
11:58 AM 80.1 °F 80.4 °F 57.0 °F 45% 29.95 in 10.0 mi Calm Calm - N/A   Clear
12:58 PM 80.1 °F 80.2 °F 55.9 °F 43% 29.92 in 10.0 mi Calm Calm - N/A   Partly Cloudy
1:58 PM 81.0 °F 81.0 °F 57.0 °F 44% 29.89 in 10.0 mi SW 6.9 mph - N/A   Partly Cloudy
2:58 PM 80.1 °F 80.2 °F 55.9 °F 43% 29.88 in 10.0 mi Calm Calm - N/A   Scattered Clouds
3:58 PM 81.0 °F 81.0 °F 57.0 °F 44% 29.88 in 10.0 mi Calm Calm - N/A   Mostly Cloudy
4:58 PM 80.1 °F 80.9 °F 60.1 °F 50% 29.88 in 10.0 mi Calm Calm - N/A   Mostly Cloudy
5:58 PM 75.9 °F - 59.0 °F 56% 29.89 in 10.0 mi Calm Calm - N/A   Mostly Cloudy
6:58 PM 73.0 °F - 61.0 °F 66% 29.92 in 10.0 mi Variable 5.8 mph - N/A   Overcast
7:58 PM 69.1 °F - 59.0 °F 70% 29.94 in 10.0 mi North 5.8 mph - N/A   Clear
8:58 PM 64.0 °F - 55.9 °F 75% 29.97 in 10.0 mi Variable 4.6 mph - N/A   Clear
9:52 PM 61.0 °F - 53.1 °F 75% 29.99 in 10.0 mi Variable 6.9 mph - N/A   Mostly Cloudy
9:58 PM 61.0 °F - 52.0 °F 72% 29.99 in 10.0 mi Variable 6.9 mph - N/A   Mostly Cloudy
10:35 PM 60.1 °F - 52.0 °F 75% 30.00 in 10.0 mi Variable 6.9 mph - N/A   Overcast
10:58 PM 59.0 °F - 51.1 °F 75% 29.99 in 10.0 mi NNW 5.8 mph - N/A   Overcast
11:58 PM 57.9 °F - 50.0 °F 75% 30.01 in 10.0 mi Variable 6.9 mph - N/A   Overcast